Temperature
22 22 21 21 20 21 23 24 25 25 24 24 24 23 22 22 21 19 19 19 19 19 19 19 19 19 19 19 19 19 19 19 19 18 18 18 18 19 19 18 18 18 18 18 18 18 18 18 18
22 22 21 21 21 21 23 25 25 25 25 24 24 23 22 21 20 19 19 19 20 20 19 19 19 19 19 19 19 19 19 19 19 18 18 18 18 19 19 19 18 18 18 18 18 18 18 18 18
22 22 21 20 22 22 24 25 25 25 25 25 24 23 22 21 20 20 20 20 20 20 19 19 19 19 19 19 19 19 19 19 19 18 18 18 18 18 18 18 18 18 18 18 18 18 18 18 18
23 22 22 21 23 25 25 25 26 25 25 24 23 22 22 21 21 20 20 20 20 20 19 19 19 19 19 19 19 19 19 19 18 18 18 18 18 18 18 18 18 18 18 18 18 18 18 18 18
23 22 22 22 25 26 26 27 26 25 25 24 23 22 21 21 21 20 20 20 20 20 20 19 19 19 19 19 19 19 19 19 19 19 18 18 18 18 18 18 18 18 18 18 18 18 18 18 18
23 22 22 23 25 27 27 27 26 25 24 23 23 22 21 21 21 20 20 20 20 20 20 19 19 19 19 19 19 19 19 19 19 19 19 18 18 18 18 18 18 18 18 18 18 18 18 18 18
23 22 23 24 26 27 27 27 26 25 24 24 23 21 21 20 21 20 20 20 20 20 20 19 19 19 19 19 19 19 19 19 19 19 19 18 18 18 18 18 18 18 18 18 18 18 18 18 18
24 22 24 25 26 27 28 28 26 25 25 24 23 22 21 20 21 20 20 20 20 20 20 20 19 19 19 19 19 19 19 19 19 19 18 18 18 18 18 18 18 18 18 18 18 18 18 18 18
25 23 23 25 26 27 28 27 27 26 25 24 24 23 22 21 21 20 20 20 20 20 20 20 20 19 19 19 19 19 19 19 18 18 18 18 18 18 18 18 18 18 18 18 18 18 18 18 18
25 23 25 27 27 27 28 27 27 26 25 24 23 23 22 21 21 21 20 20 20 20 19 19 20 19 19 19 19 19 19 18 18 18 18 18 18 18 18 18 18 18 18 18 18 18 18 18 18
25 25 27 28 29 29 28 28 27 25 24 23 23 22 22 21 21 21 21 21 20 20 20 19 19 19 19 19 19 19 19 18 18 18 18 18 18 18 18 18 18 18 18 18 18 18 18 18 18
27 28 29 29 29 29 28 28 27 25 25 25 24 23 22 22 22 21 21 21 20 20 20 20 19 19 19 19 19 19 19 19 18 18 18 18 18 18 18 18 18 18 18 18 18 18 18 18 18
28 28 29 29 29 29 28 27 26 25 25 24 24 23 23 22 22 22 21 21 21 20 20 20 20 19 19 19 19 19 19 19 19 19 18 18 18 18 18 18 18 18 18 18 18 18 18 18 18
28 28 29 29 29 29 27 27 26 25 25 24 24 23 23 23 22 22 22 21 21 21 20 20 20 19 19 19 19 19 19 19 18 18 18 18 18 18 18 18 18 18 18 18 18 18 18 18 18
29 27 27 28 28 28 27 26 25 25 25 24 24 23 23 23 23 22 22 22 21 21 21 20 20 19 19 19 19 19 19 19 19 18 18 18 18 18 18 18 18 18 18 18 18 18 18 18 18
28 26 26 27 28 28 26 24 25 25 25 24 24 23 23 23 23 23 23 22 22 21 21 20 20 20 19 19 19 19 19 19 19 18 18 18 18 18 18 18 18 18 18 18 18 18 18 18 18
26 25 26 27 28 28 26 25 25 25 25 24 24 24 23 23 23 23 23 23 22 22 21 21 20 20 20 19 19 19 19 19 19 19 18 18 18 18 18 18 18 18 18 18 18 18 18 18 18
25 26 27 27 28 27 26 25 25 25 25 24 24 24 23 23 23 23 23 23 22 22 21 21 20 20 20 20 19 19 19 19 19 19 18 18 18 18 18 18 18 18 18 18 18 18 18 18 18
27 27 27 27 28 27 26 25 25 25 25 24 24 24 23 23 23 23 23 22 22 22 21 21 20 20 20 20 19 19 19 19 19 19 19 18 18 18 18 18 18 18 18 18 18 18 18 18 18
28 27 27 27 28 27 26 26 26 25 25 25 24 24 23 23 23 23 23 22 22 22 21 21 21 20 20 20 20 19 19 19 19 19 18 18 18 18 18 18 18 18 18 18 18 18 18 18 18
27 27 27 27 27 27 26 25 25 25 25 25 24 24 24 23 23 23 23 22 22 22 22 21 21 20 20 20 19 19 19 19 18 18 18 18 18 18 18 18 18 18 18 18 18 18 18 18 18
27 28 28 28 26 24 25 23 24 24 24 24 25 24 24 24 23 23 23 22 22 22 22 22 21 21 20 20 19 19 19 19 19 19 19 18 18 18 18 18 18 18 18 18 18 18 18 18 18
28 29 28 28 26 24 24 23 23 23 23 24 24 24 24 24 23 23 23 23 22 22 22 22 21 21 20 20 20 19 19 19 19 18 18 18 18 18 18 18 18 18 18 18 18 18 18 18 18
29 27 26 23 22 23 24 24 23 23 24 24 24 25 24 24 23 23 23 23 22 22 22 22 21 21 20 20 20 19 19 19 19 19 19 18 18 18 18 18 18 18 18 18 18 18 18 18 18
27 24 23 23 22 22 23 24 23 24 25 25 25 25 24 24 23 23 23 22 22 22 22 22 21 21 21 20 20 20 19 19 19 19 19 19 18 18 18 18 18 18 18 18 18 18 18 18 18
26 23 22 23 22 22 23 23 23 25 25 26 25 25 25 24 23 23 23 23 22 22 22 22 21 21 21 20 20 20 19 19 19 19 19 19 19 19 18 18 18 18 18 18 18 18 18 17 17
26 24 22 21 22 22 22 23 24 25 25 25 25 25 24 24 24 23 23 23 22 22 22 22 22 21 21 20 20 20 19 19 19 19 19 18 18 18 18 18 18 18 18 18 18 17 17 17 17
26 24 21 21 22 22 23 23 23 24 24 24 24 24 24 24 24 23 23 23 22 22 22 22 22 21 21 21 20 20 19 19 19 19 18 18 18 18 18 18 18 18 18 18 18 17 17 17 17
25 24 21 19 20 21 22 22 24 23 23 23 23 24 24 24 24 23 23 23 22 22 22 22 21 21 21 20 20 20 19 19 19 19 18 18 18 18 18 18 18 18 17 17 17 17 17 17 17
25 24 21 21 21 19 20 21 24 23 23 23 23 24 24 24 24 24 23 23 22 22 22 21 21 21 21 21 20 20 19 19 19 18 18 18 18 18 18 18 17 17 17 17 17 17 17 17 17
Wind_Speed
10 8 3 1 2 3 4 5 6 8 6 7 10 10 9 6 5 6 4 11 11 10 11 14 15 16 16 16 17 17 17 17 17 16 15 15 15 15 15 15 15 15 15 16 17 17 17 17 17
7 5 1 1 3 4 4 5 9 10 11 11 11 11 9 7 7 10 7 11 13 12 12 14 16 16 16 16 16 16 16 16 16 15 15 14 14 14 15 15 15 15 15 16 16 16 16 16 15
6 4 1 2 2 4 5 7 11 12 11 9 6 7 6 6 9 7 9 14 12 10 12 15 17 17 16 16 16 16 16 15 15 15 14 14 14 14 14 15 15 15 15 15 15 15 15 14 14
3 1 1 2 3 4 7 9 12 14 10 9 9 7 5 6 7 11 15 15 13 10 12 15 16 16 16 16 15 15 15 15 15 14 14 13 13 13 13 14 14 14 15 14 14 13 13 13 12
1 2 2 1 3 5 8 10 12 12 6 9 11 8 5 6 16 18 16 15 13 10 11 15 16 16 16 15 15 15 14 14 14 14 13 13 13 12 12 13 14 14 14 14 13 13 12 12 11
2 2 2 1 3 6 8 10 14 15 14 12 11 8 5 10 17 16 15 13 13 12 10 13 16 16 16 15 14 14 14 14 14 13 13 12 12 11 11 12 13 14 14 13 12 12 11 11 9
2 2 1 2 4 7 8 10 13 14 12 8 10 7 6 11 14 15 14 13 12 11 10 9 12 14 14 14 14 13 13 13 13 13 12 12 12 11 11 13 13 14 13 13 12 11 10 9 8
3 2 1 1 5 6 8 8 12 15 11 12 9 8 9 12 15 15 13 12 11 9 8 7 9 11 11 12 13 13 13 13 12 12 12 12 11 11 12 12 12 12 12 12 11 11 10 8 7
3 2 1 4 5 6 8 11 8 9 12 7 6 9 14 18 17 15 13 10 9 10 7 7 7 8 9 10 12 12 12 12 11 11 11 10 8 8 9 11 12 12 12 11 10 10 9 7 6
4 3 6 5 6 7 10 13 10 8 11 9 12 14 16 17 17 16 15 13 12 11 9 7 8 7 8 9 9 9 9 9 9 8 8 8 7 7 8 10 11 11 10 10 9 8 7 5 4
5 5 3 3 6 9 10 9 7 12 10 15 19 19 18 17 15 15 14 14 13 12 11 9 8 8 7 5 7 6 6 7 7 8 8 8 7 6 6 6 7 8 8 6 6 6 5 4 4
3 4 4 4 6 9 9 8 8 8 12 18 20 20 18 17 15 14 14 13 12 12 12 10 8 7 7 7 6 6 5 5 6 8 10 8 5 5 5 5 5 5 5 4 4 4 4 4 4
2 1 1 3 6 7 9 9 9 9 16 18 19 18 17 16 14 12 12 12 12 12 11 11 9 8 7 6 5 5 5 6 7 8 9 9 6 5 5 4 5 5 5 5 4 4 3 3 2
3 1 2 4 6 7 11 8 8 11 18 18 18 16 15 15 15 12 13 12 11 11 11 10 10 9 7 6 4 4 5 7 7 7 9 9 8 6 5 4 4 4 6 6 5 4 3 2 2
2 4 3 3 4 5 10 5 7 14 18 18 17 15 14 13 14 15 15 14 13 12 11 11 10 9 8 7 6 5 6 7 6 7 8 9 8 7 6 4 4 4 6 6 4 3 2 2 2
3 3 1 4 3 4 9 6 8 14 18 16 15 15 14 12 13 14 14 13 13 13 12 11 11 9 8 6 5 4 6 7 6 7 8 9 9 8 6 4 3 4 4 4 3 3 2 2 2
3 1 3 4 4 4 5 6 10 13 16 16 15 14 14 12 11 12 13 14 14 13 12 11 10 9 8 6 5 4 5 5 7 7 7 8 9 9 6 4 3 4 3 2 3 3 3 2 2
5 4 4 4 5 4 4 5 12 14 14 14 13 13 13 14 13 13 13 13 13 13 12 11 10 9 7 5 4 3 3 4 5 6 7 8 8 8 6 4 3 4 3 2 2 2 2 2 2
7 5 5 6 5 5 6 7 12 14 12 12 12 13 14 14 12 13 14 14 13 11 11 11 10 9 7 4 4 3 4 4 3 4 7 8 8 8 6 4 3 3 3 4 4 3 2 2 2
6 5 5 4 3 4 5 5 10 13 16 17 16 15 14 13 12 13 13 13 13 13 12 11 11 10 8 6 5 3 3 3 4 4 5 8 8 7 7 5 4 4 3 3 4 3 2 2 2
7 6 6 4 2 1 5 1 4 7 8 10 13 14 14 17 17 16 16 14 13 14 13 12 11 10 9 7 4 3 2 1 1 2 3 5 7 7 6 5 5 4 4 4 4 4 4 3 3
7 7 5 4 2 2 4 3 7 9 8 10 12 14 16 17 16 15 15 16 16 15 13 11 11 10 9 8 7 6 5 4 4 3 3 3 5 6 6 5 5 4 4 4 4 4 4 4 3
7 6 4 3 3 1 0 3 7 5 7 11 14 16 17 17 18 18 17 17 16 15 14 12 11 9 8 8 8 7 5 4 3 3 4 3 3 4 5 4 4 4 4 4 4 3 4 4 4
4 2 4 5 5 0 5 5 6 7 13 13 13 15 15 15 16 16 15 13 12 13 13 12 11 10 9 9 8 8 7 6 5 4 5 4 2 2 3 3 4 4 4 4 4 4 4 4 4
2 4 3 4 4 6 4 3 8 9 11 14 14 15 16 15 15 14 15 14 13 14 14 12 12 10 10 9 9 8 8 7 7 6 6 5 3 3 4 4 3 4 4 4 4 4 4 4 4
3 8 7 5 5 5 3 4 7 6 7 9 11 13 15 15 15 16 16 16 15 15 14 14 13 11 10 10 9 8 8 6 5 6 6 6 5 4 4 4 4 4 4 4 4 3 3 3 3
2 3 8 7 3 2 4 4 5 1 2 6 9 10 12 13 15 15 14 14 14 15 14 14 14 12 12 11 9 8 7 7 6 6 5 5 4 4 4 4 4 4 3 4 4 3 4 3 3
6 5 5 5 4 3 4 4 5 5 2 3 7 9 11 12 13 14 13 13 13 13 12 11 11 11 10 10 9 8 7 7 6 6 6 5 4 4 4 4 4 4 4 3 3 3 3 3 3
1 2 4 4 5 6 4 7 7 8 6 6 7 9 10 11 13 13 13 12 11 11 11 10 10 9 9 9 8 7 7 7 6 6 6 6 5 5 4 4 5 4 4 3 3 3 3 3 4
5 6 7 5 4 5 5 8 5 6 5 6 6 7 8 10 11 12 13 12 11 11 11 11 10 10 10 9 8 7 6 6 6 6 6 5 5 5 5 4 4 4 4 4 4 4 3 3 3
Wind_Direction
165 161 162 159 46 55 94 103 107 87 68 72 82 88 87 69 99 127 140 136 134 131 131 129 129 127 125 121 119 119 117 116 115 114 114 115 115 116 118 121 123 123 122 122 124 125 125 125 124
160 161 131 50 76 82 88 107 100 101 117 105 84 84 78 71 88 113 124 134 132 132 134 132 132 130 127 123 121 121 120 119 118 118 119 118 117 118 121 124 126 125 125 126 127 128 128 127 126
172 182 132 65 111 136 130 126 118 110 111 105 94 71 74 103 110 122 137 137 130 130 134 135 133 132 128 125 123 122 121 121 121 120 121 122 121 122 123 125 128 128 128 130 132 133 133 132 131
163 141 41 67 138 146 137 137 123 114 95 89 98 79 73 110 119 131 136 134 129 131 136 137 136 134 133 130 127 125 124 123 124 123 123 124 125 127 129 129 131 133 133 134 135 136 136 136 135
103 95 49 45 109 124 132 132 128 117 103 99 98 99 86 91 119 131 137 136 135 134 139 138 138 138 136 133 131 130 128 127 126 126 126 127 129 131 134 136 136 138 137 138 138 139 140 140 140
72 74 60 79 105 118 126 124 113 108 114 111 106 105 101 126 129 137 139 138 140 140 142 141 141 139 138 137 135 133 132 132 130 130 129 130 131 134 139 143 143 143 143 142 142 144 146 146 145
120 97 156 146 119 124 134 128 120 128 128 129 126 104 121 137 140 142 141 138 139 141 142 142 144 143 142 141 141 138 137 136 136 136 136 134 134 134 139 142 142 147 146 147 148 150 152 152 151
159 101 28 131 125 127 137 126 131 132 127 134 128 128 148 153 144 135 134 133 137 140 141 144 147 148 146 146 147 147 144 143 142 141 142 140 137 136 136 140 142 145 148 150 152 154 157 159 159
137 80 200 171 148 144 133 117 118 115 123 135 124 134 146 144 137 131 132 133 142 148 153 152 154 154 151 151 153 154 150 150 149 148 148 147 143 142 144 146 149 151 153 155 158 162 169 171 174
145 167 210 183 159 150 136 130 130 115 115 111 111 123 135 139 140 142 147 150 157 161 165 164 163 163 161 161 157 158 155 154 154 153 152 152 151 154 156 159 160 159 160 163 166 172 181 188 197
164 182 203 166 146 142 134 136 123 127 136 146 143 145 146 145 148 151 156 159 163 164 165 167 166 169 169 163 157 159 158 159 162 164 164 160 159 163 167 166 170 168 169 174 181 190 203 210 219
179 209 177 162 142 140 143 136 124 139 159 155 149 149 150 153 158 160 162 164 160 161 168 170 168 166 169 159 161 164 164 169 174 176 172 164 158 158 163 166 173 177 184 186 200 200 206 220 224
141 160 136 162 147 139 127 127 125 133 141 146 145 148 154 158 162 161 160 157 155 159 165 170 164 162 157 154 168 162 169 174 175 171 172 168 160 161 165 174 180 188 192 193 198 205 202 214 217
199 248 120 144 126 126 121 122 115 143 147 149 152 156 160 162 163 158 157 158 160 162 163 166 163 162 156 157 161 163 173 174 170 169 173 172 167 167 167 170 180 195 200 204 200 197 188 196 185
85 64 43 137 136 143 115 98 141 154 153 155 162 164 166 169 165 164 166 164 165 165 163 163 163 159 156 159 167 166 172 169 169 173 173 168 167 166 165 164 173 191 195 193 189 186 166 168 177
49 77 166 245 162 164 125 158 178 160 158 162 169 169 169 172 169 166 165 163 162 160 161 166 164 160 161 161 164 163 167 167 171 173 169 168 169 169 162 159 181 193 180 168 162 168 159 174 181
32 127 241 251 190 169 143 175 177 170 164 169 173 173 168 167 165 165 164 163 161 161 159 160 158 162 165 163 160 158 160 163 170 170 169 172 173 173 166 163 182 184 171 174 187 173 168 174 189
246 239 246 224 213 163 157 187 174 177 171 172 173 171 169 172 174 168 165 163 160 159 158 159 159 162 162 156 142 138 148 158 163 167 173 176 179 176 171 168 183 175 162 177 176 173 171 173 183
232 243 253 245 216 156 176 185 182 181 180 175 177 177 175 177 172 166 165 164 159 158 159 162 162 165 162 161 161 160 173 175 170 177 180 181 183 182 174 176 184 180 182 189 182 166 165 181 145
242 248 253 268 256 163 170 192 188 182 188 184 182 184 180 172 170 167 166 167 166 166 167 166 168 170 170 172 172 169 166 173 182 184 182 187 185 188 186 181 188 186 177 178 181 163 164 195 168
259 233 214 211 264 66 113 18 200 205 194 192 191 186 185 180 178 174 172 173 171 172 173 173 171 170 172 166 151 140 116 106 146 177 187 191 189 191 191 182 186 187 182 190 196 182 176 196 209
260 246 214 196 122 243 140 199 247 209 199 198 194 187 187 186 181 178 176 176 179 180 176 170 169 167 171 166 163 160 167 177 195 189 186 188 191 190 191 186 187 190 189 193 199 188 185 179 201
237 242 219 211 146 113 23 151 267 211 205 206 198 193 191 186 181 181 182 182 182 179 175 172 169 170 170 167 170 169 173 180 175 166 167 180 194 194 191 191 186 189 196 199 200 191 188 187 190
244 27 22 44 75 258 231 173 250 211 204 203 199 193 191 187 183 182 181 178 178 177 175 172 170 175 173 170 171 172 172 174 165 173 181 191 198 204 204 190 194 196 197 200 203 200 196 202 196
41 87 22 348 357 253 244 194 239 226 202 195 188 190 190 185 182 179 178 177 176 178 177 177 175 177 177 175 177 177 178 176 178 182 187 186 193 207 215 209 206 207 205 199 199 196 202 205 201
217 143 164 204 226 269 309 235 255 236 194 182 182 182 184 182 181 179 181 179 177 177 175 176 179 180 180 182 184 183 180 182 187 185 182 186 195 202 200 201 206 211 208 204 199 203 208 207 211
189 191 173 154 197 246 277 280 309 323 127 162 166 167 174 178 179 179 176 174 175 176 177 178 179 180 184 186 183 184 184 183 184 179 179 185 191 191 188 191 200 211 212 209 193 203 213 207 211
158 160 93 117 160 239 273 255 227 239 199 166 159 164 175 177 173 170 168 168 171 173 172 172 173 181 183 185 187 190 188 187 182 176 182 185 191 192 181 184 193 206 214 211 198 202 220 210 222
174 111 111 129 161 170 237 259 219 202 194 185 179 167 165 170 167 168 167 168 167 167 168 170 174 175 177 181 182 184 185 185 177 179 183 185 186 185 185 181 189 199 205 198 188 202 206 217 232
183 179 153 159 229 186 191 258 247 186 185 174 168 157 148 155 160 162 163 164 167 170 173 174 176 179 183 181 177 181 179 178 181 187 188 184 186 185 184 177 183 198 201 197 197 210 210 210 227
Height
1498 1498 1499 1500 1501 1508 1508 1500 1494 1494 1495 1495 1495 1497 1500 1504 1508 1516 1514 1514 1515 1516 1517 1518 1518 1519 1520 1521 1521 1522 1523 1524 1525 1526 1527 1528 1528 1529 1530 1531 1532 1534 1535 1536 1538 1540 1542 1544 1546
1498 1499 1500 1501 1507 1518 1511 1498 1496 1495 1496 1496 1498 1500 1502 1506 1507 1510 1512 1516 1517 1518 1519 1520 1520 1521 1522 1523 1523 1524 1525 1526 1527 1528 1529 1529 1530 1531 1532 1533 1534 1535 1537 1538 1540 1542 1544 1546 1547
1499 1499 1501 1502 1508 1513 1508 1497 1495 1496 1496 1496 1500 1502 1505 1509 1510 1512 1514 1517 1518 1520 1521 1522 1522 1523 1524 1524 1525 1526 1527 1528 1529 1529 1530 1531 1532 1533 1533 1534 1536 1537 1539 1540 1542 1544 1546 1547 1549
1499 1500 1502 1506 1507 1499 1496 1494 1494 1497 1499 1499 1500 1505 1509 1511 1511 1513 1516 1518 1520 1521 1523 1524 1524 1525 1525 1526 1527 1528 1528 1529 1530 1531 1532 1532 1533 1534 1535 1536 1538 1539 1540 1542 1544 1545 1547 1549 1551
1499 1500 1505 1508 1502 1494 1491 1492 1494 1496 1499 1502 1502 1507 1511 1513 1514 1516 1518 1520 1521 1523 1524 1525 1526 1527 1527 1528 1529 1529 1530 1531 1531 1532 1533 1534 1534 1535 1536 1537 1539 1540 1542 1544 1545 1547 1549 1550 1552
1500 1501 1511 1513 1502 1493 1492 1493 1495 1498 1502 1504 1505 1508 1513 1515 1516 1518 1519 1521 1523 1524 1525 1527 1528 1528 1529 1529 1530 1531 1531 1532 1533 1533 1534 1535 1535 1535 1535 1536 1539 1541 1543 1545 1546 1548 1550 1552 1554
1501 1504 1509 1506 1501 1497 1494 1493 1494 1498 1501 1504 1505 1509 1515 1517 1518 1519 1521 1523 1524 1526 1527 1528 1529 1530 1530 1531 1532 1532 1533 1533 1534 1535 1535 1536 1536 1535 1533 1535 1539 1541 1544 1546 1548 1550 1551 1553 1555
1499 1503 1506 1504 1501 1498 1492 1493 1495 1497 1501 1505 1506 1508 1514 1517 1519 1521 1522 1524 1526 1527 1528 1529 1530 1531 1531 1532 1533 1533 1534 1534 1535 1536 1536 1537 1537 1537 1537 1539 1541 1543 1545 1547 1549 1551 1553 1554 1556
1498 1506 1510 1502 1498 1496 1492 1493 1498 1499 1501 1505 1506 1508 1512 1516 1519 1522 1523 1525 1527 1528 1529 1530 1531 1532 1533 1533 1534 1534 1535 1535 1536 1537 1538 1539 1539 1540 1540 1542 1544 1546 1547 1549 1551 1553 1554 1556 1557
1497 1507 1500 1491 1489 1491 1492 1493 1497 1501 1503 1505 1508 1511 1515 1517 1519 1521 1523 1525 1527 1528 1530 1531 1532 1532 1533 1534 1535 1535 1536 1536 1537 1538 1539 1540 1541 1542 1543 1544 1546 1548 1549 1551 1552 1554 1555 1557 1558
1493 1496 1489 1487 1487 1488 1490 1493 1495 1499 1504 1504 1506 1510 1515 1517 1520 1522 1523 1525 1527 1528 1530 1531 1532 1533 1534 1534 1535 1536 1536 1537 1537 1538 1539 1541 1542 1543 1545 1546 1548 1549 1551 1552 1554 1555 1556 1557 1558
1489 1487 1486 1486 1486 1487 1489 1492 1496 1497 1500 1503 1505 1508 1513 1516 1519 1521 1523 1525 1527 1528 1530 1531 1533 1534 1534 1535 1536 1536 1537 1537 1538 1538 1539 1541 1543 1544 1546 1547 1549 1550 1552 1553 1554 1556 1557 1558 1559
1487 1486 1485 1485 1486 1488 1489 1492 1496 1499 1501 1504 1507 1510 1513 1515 1518 1521 1523 1525 1526 1528 1529 1531 1533 1534 1535 1536 1536 1537 1537 1538 1538 1539 1540 1542 1543 1545 1547 1548 1550 1551 1552 1554 1555 1556 1557 1558 1558
1485 1485 1485 1486 1486 1489 1491 1494 1496 1501 1502 1505 1508 1510 1512 1514 1517 1520 1522 1524 1525 1527 1529 1531 1532 1533 1535 1536 1536 1537 1538 1538 1539 1540 1541 1543 1544 1546 1547 1548 1550 1551 1552 1554 1555 1556 1556 1557 1558
1484 1487 1488 1488 1488 1490 1492 1499 1498 1500 1502 1505 1508 1510 1512 1514 1516 1518 1520 1522 1524 1526 1528 1530 1532 1533 1534 1536 1536 1537 1538 1538 1539 1541 1542 1543 1544 1546 1547 1548 1550 1551 1552 1553 1554 1555 1556 1557 1557
1487 1494 1501 1491 1488 1490 1496 1508 1500 1499 1501 1504 1507 1509 1511 1513 1515 1517 1519 1521 1523 1525 1527 1529 1531 1533 1534 1535 1536 1537 1538 1539 1540 1541 1542 1543 1545 1546 1547 1548 1550 1551 1552 1553 1554 1555 1555 1556 1556
1496 1505 1502 1494 1487 1489 1494 1502 1498 1498 1500 1502 1505 1507 1510 1512 1514 1516 1518 1520 1522 1524 1526 1528 1530 1532 1534 1535 1536 1537 1538 1539 1541 1542 1543 1544 1545 1546 1547 1548 1549 1550 1551 1552 1553 1553 1554 1555 1555
1505 1503 1498 1495 1486 1487 1493 1496 1496 1497 1498 1500 1503 1506 1508 1509 1512 1514 1517 1519 1521 1523 1525 1527 1529 1532 1533 1535 1536 1537 1538 1539 1540 1541 1543 1544 1545 1546 1547 1548 1549 1550 1550 1551 1552 1553 1553 1554 1554
1491 1494 1497 1490 1481 1485 1491 1494 1494 1494 1496 1498 1501 1504 1505 1507 1510 1513 1515 1518 1520 1522 1524 1526 1528 1530 1532 1533 1534 1536 1537 1538 1540 1541 1542 1543 1544 1545 1546 1547 1548 1549 1549 1550 1551 1552 1552 1552 1553
1487 1493 1494 1488 1481 1484 1490 1492 1489 1491 1491 1492 1495 1500 1502 1506 1509 1510 1513 1516 1517 1520 1522 1524 1526 1528 1530 1532 1533 1535 1536 1538 1539 1540 1541 1542 1543 1544 1545 1546 1547 1547 1548 1549 1549 1550 1551 1551 1552
1486 1489 1489 1490 1484 1483 1490 1499 1494 1490 1490 1492 1494 1495 1499 1501 1504 1506 1509 1512 1515 1517 1519 1522 1524 1526 1529 1531 1533 1535 1536 1537 1538 1539 1540 1541 1542 1543 1544 1544 1545 1546 1546 1547 1548 1548 1549 1549 1550
1489 1477 1478 1482 1493 1501 1496 1518 1500 1491 1491 1491 1492 1493 1494 1498 1501 1503 1506 1508 1511 1514 1517 1520 1522 1525 1527 1529 1531 1533 1534 1535 1536 1538 1539 1540 1541 1542 1543 1543 1544 1544 1545 1545 1546 1547 1547 1547 1548
1477 1470 1474 1479 1489 1501 1499 1511 1505 1491 1493 1488 1487 1488 1490 1493 1496 1499 1502 1505 1508 1512 1515 1518 1521 1523 1525 1527 1529 1531 1532 1534 1535 1537 1538 1538 1539 1540 1540 1541 1542 1542 1543 1543 1544 1544 1545 1545 1545
1467 1473 1479 1487 1498 1514 1502 1507 1507 1491 1485 1481 1481 1483 1485 1489 1493 1495 1499 1503 1506 1510 1513 1516 1518 1520 1523 1525 1527 1529 1530 1532 1533 1534 1535 1536 1537 1538 1538 1539 1540 1540 1540 1541 1541 1542 1542 1542 1542
1471 1491 1512 1516 1523 1518 1499 1501 1498 1476 1471 1471 1474 1477 1481 1484 1489 1492 1496 1499 1503 1506 1510 1513 1515 1518 1520 1523 1525 1526 1528 1530 1531 1532 1533 1534 1535 1535 1536 1537 1537 1538 1538 1538 1539 1539 1539 1540 1540
1474 1488 1514 1525 1526 1516 1500 1501 1486 1468 1465 1466 1468 1471 1475 1480 1484 1488 1491 1494 1498 1502 1506 1509 1512 1514 1517 1520 1522 1524 1526 1527 1529 1530 1531 1532 1532 1533 1534 1534 1535 1536 1536 1536 1536 1536 1537 1537 1537
1474 1483 1485 1504 1509 1515 1508 1493 1478 1467 1466 1466 1468 1470 1473 1477 1480 1484 1488 1492 1495 1499 1502 1505 1508 1511 1514 1517 1519 1522 1524 1525 1526 1527 1529 1530 1530 1531 1532 1532 1532 1533 1534 1534 1534 1534 1534 1535 1535
1464 1472 1491 1504 1517 1522 1510 1500 1492 1476 1471 1468 1468 1469 1471 1474 1477 1481 1485 1489 1493 1496 1499 1503 1506 1508 1511 1514 1517 1519 1521 1522 1524 1525 1526 1527 1528 1529 1529 1529 1530 1530 1531 1531 1531 1531 1531 1532 1532
1469 1475 1487 1501 1504 1517 1518 1503 1470 1469 1467 1467 1466 1467 1468 1471 1473 1478 1482 1486 1491 1495 1498 1501 1503 1506 1509 1511 1513 1516 1518 1520 1521 1522 1523 1524 1526 1526 1527 1527 1527 1528 1528 1528 1528 1528 1528 1528 1528
1461 1469 1481 1499 1503 1505 1509 1497 1460 1461 1462 1463 1465 1466 1467 1470 1472 1476 1480 1484 1489 1492 1495 1498 1501 1503 1506 1508 1511 1513 1515 1516 1518 1519 1521 1522 1523 1524 1524 1524 1525 1525 1525 1525 1525 1525 1525 1525 1525